When you browse on this site, cookies collect data to enhance your experience and personalize the content and advertising you see.
Visit our Privacy Policy to learn more. By continuing to use the site, you agree to this use of cookies and data.
  • In Spain
  • List of Countries
  • For 7 days
  • Water Temperature
  • Weather Map
  • Weather Widgets
  • user-avatar
    Login

    Hourly Weather Kurytyba

    Today, 25 February, Tuesday

    Time Temperature Precipitation Wind Pressure Humidity
    00:00 +20°C° 0 mm 1 mps 681 mmHg 95%
    01:00 +19°C° 0 mm 1 mps 680 mmHg 96%
    02:00 +19°C° 0 mm 1 mps 680 mmHg 96%
    03:00 +19°C° 0 mm 1 mps 680 mmHg 97%
    04:00 +19°C° 0 mm 1 mps 680 mmHg 97%
    05:00 +19°C° 0 mm 1 mps 680 mmHg 97%
    06:00 +19°C° 0 mm 1 mps 680 mmHg 97%
    07:00 +20°C° 0 mm 1 mps 680 mmHg 92%
    08:00 +22°C° 0 mm 1 mps 681 mmHg 88%
    09:00 +23°C° 0 mm 2 mps 681 mmHg 84%
    10:00 +24°C° 0 mm 2 mps 681 mmHg 79%
    11:00 +25°C° 0 mm 1 mps 681 mmHg 75%
    12:00 +26°C° 0 mm 1 mps 681 mmHg 70%
    13:00 +26°C° 0.9 mm 1 mps 680 mmHg 73%
    14:00 +27°C° 0.9 mm 1 mps 680 mmHg 76%
    15:00 +27°C° 0.9 mm 1 mps 679 mmHg 79%
    16:00 +26°C° 2 mm 1 mps 679 mmHg 83%
    17:00 +25°C° 2 mm 1 mps 679 mmHg 87%
    18:00 +22°C° 2 mm 0 mps 678 mmHg 90%
    19:00 +22°C° 5.9 mm 0 mps 679 mmHg 92%
    20:00 +23°C° 5.9 mm 1 mps 679 mmHg 94%
    21:00 +22°C° 5.9 mm 1 mps 679 mmHg 96%
    22:00 +22°C° 1.2 mm 1 mps 679 mmHg 96%
    23:00 +21°C° 1.2 mm 1 mps 678 mmHg 97%

    Tomorrow, 26 February, Wednesday

    Time Temperature Precipitation Wind Pressure Humidity
    00:00 +21°C° 1.2 mm 1 mps 678 mmHg 97%
    01:00 +21°C° 1 mm 1 mps 678 mmHg 97%
    02:00 +21°C° 1 mm 1 mps 677 mmHg 97%
    03:00 +21°C° 1 mm 1 mps 677 mmHg 96%
    04:00 +21°C° 0.7 mm 1 mps 677 mmHg 97%
    05:00 +21°C° 0.7 mm 1 mps 676 mmHg 97%
    06:00 +20°C° 0.7 mm 2 mps 676 mmHg 97%
    07:00 +20°C° 0.1 mm 2 mps 676 mmHg 97%
    08:00 +21°C° 0.1 mm 2 mps 677 mmHg 96%
    09:00 +21°C° 0.1 mm 2 mps 677 mmHg 95%
    10:00 +21°C° 1 mm 2 mps 677 mmHg 95%
    11:00 +20°C° 1 mm 3 mps 677 mmHg 94%
    12:00 +20°C° 1 mm 3 mps 677 mmHg 94%
    13:00 +20°C° 2 mm 2 mps 677 mmHg 94%
    14:00 +19°C° 2 mm 2 mps 676 mmHg 93%
    15:00 +20°C° 2 mm 1 mps 676 mmHg 93%
    16:00 +20°C° 0.2 mm 1 mps 676 mmHg 93%
    17:00 +20°C° 0.2 mm 1 mps 677 mmHg 92%
    18:00 +20°C° 0.2 mm 1 mps 677 mmHg 92%
    19:00 +18°C° 0.6 mm 2 mps 678 mmHg 93%
    20:00 +17°C° 0.6 mm 2 mps 678 mmHg 94%
    21:00 +16°C° 0.6 mm 2 mps 679 mmHg 95%
    22:00 +16°C° 0.1 mm 2 mps 679 mmHg 94%
    23:00 +15°C° 0.1 mm 2 mps 679 mmHg 93%

    Day after tomorrow, 27 February, Thursday

    Time Temperature Precipitation Wind Pressure Humidity
    00:00 +15°C° 0.1 mm 2 mps 680 mmHg 91%
    01:00 +14°C° 0 mm 2 mps 679 mmHg 92%
    02:00 +13°C° 0 mm 1 mps 679 mmHg 92%
    03:00 +13°C° 0 mm 1 mps 679 mmHg 92%
    04:00 +13°C° 0 mm 1 mps 679 mmHg 92%
    05:00 +12°C° 0 mm 1 mps 679 mmHg 92%
    06:00 +11°C° 0 mm 0 mps 679 mmHg 93%
    07:00 +14°C° 0 mm 1 mps 680 mmHg 82%
    08:00 +18°C° 0 mm 1 mps 680 mmHg 72%
    09:00 +20°C° 0 mm 1 mps 681 mmHg 62%
    10:00 +22°C° 0 mm 1 mps 681 mmHg 52%
    11:00 +24°C° 0 mm 1 mps 681 mmHg 42%
    12:00 +26°C° 0 mm 1 mps 682 mmHg 32%
    13:00 +26°C° 0 mm 1 mps 681 mmHg 31%
    14:00 +27°C° 0 mm 2 mps 681 mmHg 31%
    15:00 +27°C° 0 mm 2 mps 681 mmHg 30%
    16:00 +25°C° 0 mm 2 mps 680 mmHg 40%
    17:00 +22°C° 0 mm 3 mps 680 mmHg 49%
    18:00 +20°C° 0 mm 3 mps 680 mmHg 59%
    19:00 +18°C° 0 mm 3 mps 680 mmHg 67%
    20:00 +16°C° 0 mm 2 mps 680 mmHg 74%
    21:00 +14°C° 0 mm 2 mps 681 mmHg 82%
    22:00 +14°C° 0 mm 2 mps 681 mmHg 86%
    23:00 +14°C° 0 mm 2 mps 681 mmHg 89%

    28 February, Friday

    Time Temperature Precipitation Wind Pressure Humidity
    00:00 +14°C° 0 mm 2 mps 681 mmHg 93%
    01:00 +14°C° 0 mm 1 mps 681 mmHg 92%
    02:00 +14°C° 0 mm 1 mps 681 mmHg 92%
    03:00 +14°C° 0 mm 1 mps 681 mmHg 91%
    04:00 +14°C° 0 mm 1 mps 681 mmHg 91%
    05:00 +13°C° 0 mm 0 mps 681 mmHg 92%
    06:00 +13°C° 0 mm 0 mps 681 mmHg 92%
    07:00 +15°C° 0 mm 0 mps 682 mmHg 84%
    08:00 +19°C° 0 mm 1 mps 682 mmHg 75%
    09:00 +21°C° 0 mm 1 mps 683 mmHg 67%
    10:00 +23°C° 0 mm 1 mps 683 mmHg 58%
    11:00 +25°C° 0 mm 1 mps 684 mmHg 50%
    12:00 +27°C° 0 mm 1 mps 684 mmHg 42%
    13:00 +27°C° 0 mm 1 mps 683 mmHg 42%
    14:00 +27°C° 0 mm 2 mps 683 mmHg 42%
    15:00 +27°C° 0 mm 2 mps 682 mmHg 43%
    16:00 +25°C° 0 mm 2 mps 682 mmHg 54%
    17:00 +24°C° 0 mm 2 mps 681 mmHg 65%
    18:00 +21°C° 0 mm 3 mps 681 mmHg 75%
    19:00 +19°C° 0 mm 3 mps 681 mmHg 80%
    20:00 +18°C° 0 mm 2 mps 682 mmHg 85%
    21:00 +17°C° 0 mm 2 mps 682 mmHg 90%
    22:00 +16°C° 0 mm 2 mps 682 mmHg 91%
    23:00 +16°C° 0 mm 2 mps 682 mmHg 92%

    29 February, Saturday

    Time Temperature Precipitation Wind Pressure Humidity
    00:00 +15°C° 0 mm 1 mps 682 mmHg 93%
    01:00 +15°C° 0 mm 1 mps 682 mmHg 93%
    02:00 +14°C° 0 mm 1 mps 681 mmHg 94%
    03:00 +13°C° 0 mm 0 mps 681 mmHg 94%
    04:00 +13°C° 0 mm 0 mps 681 mmHg 94%
    05:00 +13°C° 0 mm 0 mps 682 mmHg 94%
    06:00 +13°C° 0 mm 0 mps 682 mmHg 94%
    07:00 +15°C° 0 mm 0 mps 683 mmHg 81%
    08:00 +18°C° 0 mm 0 mps 683 mmHg 69%
    09:00 +22°C° 0 mm 1 mps 684 mmHg 57%
    10:00 +24°C° 0 mm 1 mps 684 mmHg 50%
    11:00 +26°C° 0 mm 1 mps 684 mmHg 44%
    12:00 +28°C° 0 mm 1 mps 685 mmHg 38%
    13:00 +28°C° 0 mm 1 mps 684 mmHg 39%
    14:00 +28°C° 0 mm 2 mps 683 mmHg 40%
    15:00 +28°C° 0 mm 2 mps 683 mmHg 41%
    16:00 +26°C° 0.1 mm 2 mps 682 mmHg 52%
    17:00 +24°C° 0.1 mm 2 mps 682 mmHg 63%
    18:00 +22°C° 0.1 mm 3 mps 682 mmHg 74%
    19:00 +20°C° 0 mm 3 mps 682 mmHg 80%
    20:00 +19°C° 0 mm 2 mps 682 mmHg 86%
    21:00 +18°C° 0 mm 2 mps 683 mmHg 92%
    22:00 +17°C° 0 mm 2 mps 683 mmHg 92%
    23:00 +17°C° 0 mm 2 mps 683 mmHg 92%

    1 March, Sunday

    Time Temperature Precipitation Wind Pressure Humidity
    00:00 +17°C° 0 mm 2 mps 683 mmHg 93%
    01:00 +17°C° 0 mm 2 mps 683 mmHg 91%
    02:00 +17°C° 0 mm 2 mps 683 mmHg 90%
    03:00 +18°C° 0 mm 1 mps 682 mmHg 89%
    04:00 +18°C° 0 mm 1 mps 683 mmHg 89%
    05:00 +18°C° 0 mm 1 mps 683 mmHg 89%
    06:00 +18°C° 0 mm 1 mps 683 mmHg 89%
    07:00 +18°C° 0 mm 1 mps 684 mmHg 86%
    08:00 +19°C° 0 mm 1 mps 684 mmHg 83%
    09:00 +20°C° 0 mm 1 mps 685 mmHg 81%
    10:00 +20°C° 0.1 mm 2 mps 685 mmHg 75%
    11:00 +23°C° 0.1 mm 2 mps 685 mmHg 68%
    12:00 +24°C° 0.1 mm 2 mps 685 mmHg 62%
    13:00 +25°C° 0.2 mm 2 mps 685 mmHg 60%
    14:00 +25°C° 0.2 mm 3 mps 684 mmHg 58%
    15:00 +26°C° 0.2 mm 3 mps 684 mmHg 55%
    16:00 +25°C° 0 mm 3 mps 683 mmHg 57%
    17:00 +22°C° 0 mm 3 mps 683 mmHg 58%
    18:00 +21°C° 0 mm 3 mps 683 mmHg 59%
    19:00 +20°C° 0 mm 3 mps 683 mmHg 69%
    20:00 +18°C° 0 mm 3 mps 683 mmHg 78%
    21:00 +16°C° 0 mm 3 mps 684 mmHg 88%
    22:00 +16°C° 0 mm 3 mps 684 mmHg 89%
    23:00 +16°C° 0 mm 2 mps 684 mmHg 90%
    Show more